Change the Weather History Date:

Tuesday, September 3, 2013

  Actual Average Record
Temperature  
Mean Temperature 80 °F -  
Max Temperature 96 °F 79 °F 98 °F (1978)
Min Temperature 64 °F 48 °F 32 °F (1912)
Cooling Degree Days 15    
Growing Degree Days 30 (Base 50)    
Moisture  
Dew Point 58 °F    
Average Humidity 57    
Maximum Humidity 78    
Minimum Humidity 23    
Precipitation  
Precipitation 0.00 in - - ()
Sea Level Pressure  
Sea Level Pressure 29.97 in    
Wind  
Wind Speed 2 mph (ENE)    
Max Wind Speed 10 mph    
Max Gust Speed -    
Visibility 10 miles    
Events      
Averages and records for this station are not official NWS values.
T = Trace of Precipitation, MM = Missing Value Source: NWS Daily Summary

Daily Weather History Graph

Daily Weather History Graph

Search for Another Location

Airport or City:

Trip Planner

Search our weather history database for the weather conditions in past years. The results will help you decide how hot, cold, wet, or windy it might be!

Date:

Astronomy

Sep. 03, 2013 Rise Set
Actual Time 6:18 AM MDT 7:32 PM MDT
Civil Twilight 5:46 AM MDT 8:04 PM MDT
Nautical Twilight 5:08 AM MDT 8:42 PM MDT
Astronomical Twilight 4:26 AM MDT 9:23 PM MDT
Moon 4:30 AM MDT (9/3) 6:22 PM MDT (9/3)
Length of Visible Light 14h 18m
Length of Day
13h 14m
Waning Crescent, 3% of the Moon is Illuminated
Sep 3
Waning Crescent
Sep 5
New
Sep 12
First Quarter
Sep 19
Full
Sep 26
Last Quarter

Hourly Weather History & Observations

Time (MDT) Temp. Heat Index Dew Point Humidity Pressure Visibility Wind Dir Wind Speed Gust Speed Precip Events Conditions
12:15 AM 69.8 °F - 55.4 °F 60% 29.94 in 10.0 mi Calm Calm - N/A   Clear
12:35 AM 69.8 °F - 57.2 °F 64% 29.94 in 10.0 mi Calm Calm - N/A   Clear
12:55 AM 68.0 °F - 57.2 °F 68% 29.94 in 10.0 mi Calm Calm - N/A   Clear
1:15 AM 68.0 °F - 57.2 °F 68% 29.94 in 10.0 mi Calm Calm - N/A   Clear
1:35 AM 66.2 °F - 57.2 °F 73% 29.93 in 10.0 mi Calm Calm - N/A   Clear
1:55 AM 68.0 °F - 57.2 °F 68% 29.93 in 10.0 mi Calm Calm - N/A   Clear
2:15 AM 68.0 °F - 57.2 °F 68% 29.93 in 10.0 mi Calm Calm - N/A   Clear
2:35 AM 66.2 °F - 57.2 °F 73% 29.94 in 10.0 mi Calm Calm - N/A   Clear
2:55 AM 66.2 °F - 57.2 °F 73% 29.93 in 10.0 mi Calm Calm - N/A   Clear
3:15 AM 66.2 °F - 57.2 °F 73% 29.93 in 10.0 mi Calm Calm - N/A   Clear
3:35 AM 66.2 °F - 57.2 °F 73% 29.92 in 10.0 mi Calm Calm - N/A   Clear
3:55 AM 66.2 °F - 59.0 °F 78% 29.92 in 10.0 mi Calm Calm - N/A   Clear
4:35 AM 66.2 °F - 57.2 °F 73% 29.93 in 10.0 mi Calm Calm - N/A   Clear
4:55 AM 66.2 °F - 57.2 °F 73% 29.94 in 10.0 mi Calm Calm - N/A   Clear
5:15 AM 64.4 °F - 57.2 °F 77% 29.94 in 10.0 mi NW 3.5 mph - N/A   Clear
5:35 AM 64.4 °F - 57.2 °F 77% 29.95 in 10.0 mi Calm Calm - N/A   Clear
5:55 AM 64.4 °F - 57.2 °F 77% 29.95 in 10.0 mi Calm Calm - N/A   Clear
6:15 AM 64.4 °F - 57.2 °F 77% 29.95 in 10.0 mi Calm Calm - N/A   Clear
6:35 AM 64.4 °F - 57.2 °F 77% 29.95 in 10.0 mi Calm Calm - N/A   Clear
6:55 AM 66.2 °F - 57.2 °F 73% 29.95 in 10.0 mi Calm Calm - N/A   Clear
7:15 AM 64.4 °F - 57.2 °F 77% 29.95 in 10.0 mi North 5.8 mph - N/A   Clear
7:35 AM 66.2 °F - 59.0 °F 78% 29.95 in 10.0 mi NNE 4.6 mph - N/A   Clear
7:55 AM 66.2 °F - 59.0 °F 78% 29.95 in 10.0 mi North 6.9 mph - N/A   Clear
8:15 AM 66.2 °F - 59.0 °F 78% 29.95 in 10.0 mi North 4.6 mph - N/A   Clear
8:35 AM 69.8 °F - 60.8 °F 73% 29.95 in 10.0 mi Calm Calm - N/A   Clear
9:15 AM 71.6 °F - 62.6 °F 73% 29.97 in 10.0 mi Calm Calm - N/A   Clear
9:55 AM 73.4 °F - 62.6 °F 69% 29.96 in 10.0 mi SSW 3.5 mph - N/A   Clear
10:15 AM 75.2 °F - 60.8 °F 61% 29.96 in 10.0 mi Calm Calm - N/A   Clear
10:35 AM 78.8 °F - 62.6 °F 57% 29.97 in 10.0 mi SSE 3.5 mph - N/A   Clear
10:55 AM 78.8 °F - 64.4 °F 61% 29.97 in 10.0 mi South 5.8 mph - N/A   Clear
11:15 AM 80.6 °F 82.3 °F 64.4 °F 58% 29.97 in 10.0 mi South 3.5 mph - N/A   Clear
11:55 AM 82.4 °F 83.9 °F 64.4 °F 54% 29.98 in 10.0 mi Calm Calm - N/A   Clear
12:15 PM 86.0 °F 87.3 °F 64.4 °F 48% 29.98 in 10.0 mi South 3.5 mph - N/A   Clear
12:35 PM 87.8 °F 89.4 °F 64.4 °F 46% 29.97 in 10.0 mi South 5.8 mph - N/A   Clear
1:35 PM 91.4 °F 92.1 °F 62.6 °F 38% 29.97 in 10.0 mi South 4.6 mph - N/A   Clear
1:55 PM 91.4 °F 92.1 °F 62.6 °F 38% 29.97 in 10.0 mi South 5.8 mph - N/A   Clear
2:15 PM 91.4 °F 92.1 °F 62.6 °F 38% 29.97 in 10.0 mi South 4.6 mph - N/A   Clear
2:35 PM 93.2 °F 94.1 °F 62.6 °F 36% 29.96 in 10.0 mi Calm Calm - N/A   Clear
2:55 PM 96.8 °F 97.1 °F 60.8 °F 30% 29.96 in 10.0 mi SSE 3.5 mph - N/A   Clear
3:15 PM 95.0 °F 95.2 °F 60.8 °F 32% 29.96 in 10.0 mi SSE 6.9 mph - N/A   Clear
3:35 PM 96.8 °F 95.8 °F 57.2 °F 27% 29.96 in 10.0 mi SE 3.5 mph - N/A   Clear
3:55 PM 96.8 °F 95.1 °F 55.4 °F 25% 29.96 in 10.0 mi East 10.4 mph - N/A   Clear
4:15 PM 96.8 °F 94.4 °F 53.6 °F 23% 29.96 in 10.0 mi East 9.2 mph - N/A   Clear
4:35 PM 96.8 °F 94.4 °F 53.6 °F 23% 29.96 in 10.0 mi ESE 5.8 mph - N/A   Clear
4:55 PM 96.8 °F 94.4 °F 53.6 °F 23% 29.96 in 10.0 mi East 6.9 mph - N/A   Clear
5:15 PM 95.0 °F 92.7 °F 53.6 °F 25% 29.96 in 10.0 mi ESE 6.9 mph - N/A   Clear
5:55 PM 93.2 °F 91.3 °F 55.4 °F 28% 29.96 in 10.0 mi East 6.9 mph - N/A   Clear
6:15 PM 91.4 °F 89.1 °F 53.6 °F 28% 29.96 in 10.0 mi ENE 6.9 mph - N/A   Clear
6:55 PM 86.0 °F 84.2 °F 53.6 °F 33% 29.97 in 10.0 mi East 3.5 mph - N/A   Clear
7:15 PM 82.4 °F 81.4 °F 53.6 °F 37% 29.97 in 8.0 mi Calm Calm - N/A   Clear
7:35 PM 78.8 °F - 55.4 °F 44% 29.97 in 10.0 mi NNW 3.5 mph - N/A   Clear
7:55 PM 78.8 °F - 53.6 °F 42% 29.98 in 10.0 mi North 3.5 mph - N/A   Clear
8:35 PM 75.2 °F - 55.4 °F 50% 29.99 in 10.0 mi North 6.9 mph - N/A   Clear
8:55 PM 73.4 °F - 55.4 °F 53% 30.00 in 10.0 mi North 5.8 mph - N/A   Clear
9:15 PM 73.4 °F - 55.4 °F 53% 30.01 in 10.0 mi North 4.6 mph - N/A   Clear
9:35 PM 71.6 °F - 55.4 °F 57% 30.02 in 10.0 mi North 4.6 mph - N/A   Clear
10:15 PM 69.8 °F - 55.4 °F 60% 30.04 in 10.0 mi NNW 5.8 mph - N/A   Clear
10:35 PM 71.6 °F - 57.2 °F 60% 30.04 in 10.0 mi NNE 8.1 mph - N/A   Clear
10:55 PM 71.6 °F - 57.2 °F 60% 30.05 in 10.0 mi NNE 8.1 mph - N/A   Clear
11:15 PM 69.8 °F - 57.2 °F 64% 30.06 in 10.0 mi NNE 8.1 mph - N/A   Clear
11:35 PM 69.8 °F - 57.2 °F 64% 30.06 in 10.0 mi NNE 6.9 mph - N/A   Clear
11:55 PM 69.8 °F - 57.2 °F 64% 30.06 in 10.0 mi NNE 6.9 mph - N/A   Clear